Location: Castle Hill Houses
(40.8186°N, 73.8497°W)
Time: 10:46:50
(UTC+00:00)

USA 238 DEB - Pass Details

Date: 26 January 2020
Orbit: 1021 x 1191 km, 63.4° (Epoch: 10 February)

Event Time Altitude Azimuth Distance (km) Brightness Sun altitude
Exits shadow 09:32:00 73° 230° (SW) 1,216 3.7 -30.1°
Drops below altitude 10° 09:39:16 10° 157° (SSE) 3,099 6.4 -28.7°
Sets 09:42:02 0° 155° (SSE) 4,067 7.1 -28.2°
